Time,TemperatureF,DewpointF,PressureIn,WindDirection,WindDirectionDegrees,WindSpeedMPH,WindSpeedGustMPH,Humidity,HourlyPrecipIn,Conditions,Clouds,dailyrainin,SoftwareType,DateUTC
2013-05-16 00:01:00,55.4,49.7,29.99,West,270,0.4,2.0,81,0.00,,,0.00,WUHU216HW,2013-05-16 07:01:00,
2013-05-16 00:06:00,55.4,49.3,29.99,WNW,293,0.2,1.3,80,0.00,,,0.00,WUHU216HW,2013-05-16 07:06:00,
2013-05-16 00:12:00,55.4,49.7,29.99,WNW,293,1.8,1.8,81,0.00,,,0.00,WUHU216HW,2013-05-16 07:12:00,
2013-05-16 00:17:00,55.4,49.3,29.99,West,270,0.4,1.8,80,0.00,,,0.00,WUHU216HW,2013-05-16 07:17:00,
2013-05-16 00:22:00,55.4,49.3,29.98,WSW,248,0.4,1.6,80,0.00,,,0.00,WUHU216HW,2013-05-16 07:22:00,
2013-05-16 00:27:00,55.4,49.3,29.98,WSW,248,0.0,1.6,80,0.00,,,0.00,WUHU216HW,2013-05-16 07:27:00,
2013-05-16 00:32:00,55.4,49.3,29.98,SW,225,0.4,0.9,80,0.00,,,0.00,WUHU216HW,2013-05-16 07:32:00,
2013-05-16 00:37:00,55.6,49.5,29.98,SW,225,0.0,0.9,80,0.00,,,0.00,WUHU216HW,2013-05-16 07:37:00,
2013-05-16 00:42:00,55.6,49.5,29.98,SW,225,0.0,0.2,80,0.00,,,0.00,WUHU216HW,2013-05-16 07:42:00,
2013-05-16 00:47:00,55.6,49.5,29.98,SW,225,0.2,0.2,80,0.00,,,0.00,WUHU216HW,2013-05-16 07:47:00,
2013-05-16 00:52:00,55.6,49.5,29.98,WSW,248,0.0,0.4,80,0.00,,,0.00,WUHU216HW,2013-05-16 07:52:00,
2013-05-16 00:57:00,55.8,50.1,29.98,West,270,0.7,1.1,81,0.00,,,0.00,WUHU216HW,2013-05-16 07:57:00,
2013-05-16 01:02:00,55.8,50.1,29.98,West,270,0.0,1.1,81,0.00,,,0.00,WUHU216HW,2013-05-16 08:02:00,
2013-05-16 01:07:00,55.8,49.7,29.98,West,270,0.0,0.4,80,0.00,,,0.00,WUHU216HW,2013-05-16 08:07:00,
2013-05-16 01:12:00,55.8,49.7,29.98,West,270,0.2,0.4,80,0.00,,,0.00,WUHU216HW,2013-05-16 08:12:00,
2013-05-16 01:17:00,55.8,49.7,29.98,WSW,248,0.4,1.1,80,0.00,,,0.00,WUHU216HW,2013-05-16 08:17:00,
2013-05-16 01:22:00,55.8,49.7,29.98,SE,135,1.6,1.6,80,0.00,,,0.00,WUHU216HW,2013-05-16 08:22:00,
2013-05-16 01:27:00,56.0,49.9,29.98,WSW,248,1.1,1.6,80,0.00,,,0.00,WUHU216HW,2013-05-16 08:27:00,
2013-05-16 01:33:00,56.0,49.9,29.98,NW,315,0.4,1.8,80,0.00,,,0.00,WUHU216HW,2013-05-16 08:33:00,
2013-05-16 01:38:00,56.0,49.9,29.98,SW,225,0.2,1.8,80,0.00,,,0.00,WUHU216HW,2013-05-16 08:38:00,
2013-05-16 01:43:00,56.0,49.9,29.98,WSW,248,0.9,1.8,80,0.00,,,0.00,WUHU216HW,2013-05-16 08:43:00,
2013-05-16 01:48:00,56.0,49.9,29.97,SSW,203,1.8,1.8,80,0.00,,,0.00,WUHU216HW,2013-05-16 08:48:00,
2013-05-16 01:53:00,56.0,49.9,29.97,WSW,248,1.1,1.8,80,0.00,,,0.00,WUHU216HW,2013-05-16 08:53:00,
2013-05-16 01:58:00,55.8,49.7,29.97,SW,225,0.7,2.0,80,0.00,,,0.00,WUHU216HW,2013-05-16 08:58:00,
2013-05-16 02:03:00,56.0,50.2,29.97,West,270,0.9,2.0,81,0.00,,,0.00,WUHU216HW,2013-05-16 09:03:00,
2013-05-16 02:08:00,55.8,50.1,29.97,West,270,0.0,1.1,81,0.00,,,0.00,WUHU216HW,2013-05-16 09:08:00,
2013-05-16 02:13:00,55.8,50.1,29.96,WSW,248,0.4,1.1,81,0.00,,,0.00,WUHU216HW,2013-05-16 09:13:00,
2013-05-16 02:18:00,55.8,49.7,29.96,WSW,248,0.0,0.4,80,0.00,,,0.00,WUHU216HW,2013-05-16 09:18:00,
2013-05-16 02:23:00,55.8,50.1,29.96,WSW,248,0.4,0.4,81,0.00,,,0.00,WUHU216HW,2013-05-16 09:23:00,
2013-05-16 02:28:00,55.8,50.1,29.96,SW,225,0.2,0.9,81,0.00,,,0.00,WUHU216HW,2013-05-16 09:28:00,
2013-05-16 02:33:00,55.8,49.7,29.96,SW,225,0.0,0.9,80,0.00,,,0.00,WUHU216HW,2013-05-16 09:33:00,
2013-05-16 02:38:00,55.8,50.1,29.96,West,270,0.4,0.4,81,0.00,,,0.00,WUHU216HW,2013-05-16 09:38:00,
2013-05-16 02:43:00,55.8,50.1,29.96,West,270,0.4,0.4,81,0.00,,,0.00,WUHU216HW,2013-05-16 09:43:00,
2013-05-16 02:49:00,56.0,50.2,29.96,West,270,0.2,0.9,81,0.00,,,0.00,WUHU216HW,2013-05-16 09:49:00,
2013-05-16 02:54:00,56.0,50.2,29.96,West,270,0.4,1.3,81,0.00,,,0.00,WUHU216HW,2013-05-16 09:54:00,
2013-05-16 02:59:00,56.0,50.2,29.96,WSW,248,0.0,1.3,81,0.00,,,0.00,WUHU216HW,2013-05-16 09:59:00,
2013-05-16 03:04:00,56.0,50.5,29.95,West,270,1.1,2.9,82,0.00,,,0.00,WUHU216HW,2013-05-16 10:04:00,
2013-05-16 03:09:00,56.0,50.2,29.96,WSW,248,0.0,2.9,81,0.00,,,0.00,WUHU216HW,2013-05-16 10:09:00,
2013-05-16 03:14:00,55.8,50.3,29.96,WSW,248,0.7,1.8,82,0.00,,,0.00,WUHU216HW,2013-05-16 10:14:00,
2013-05-16 03:19:00,55.8,50.3,29.96,West,270,0.4,1.8,82,0.00,,,0.00,WUHU216HW,2013-05-16 10:19:00,
2013-05-16 03:24:00,55.8,50.1,29.96,SW,225,0.0,1.8,81,0.00,,,0.00,WUHU216HW,2013-05-16 10:24:00,
2013-05-16 03:29:00,55.8,50.3,29.96,SW,225,1.1,1.8,82,0.00,,,0.00,WUHU216HW,2013-05-16 10:29:00,
2013-05-16 03:34:00,55.8,50.3,29.95,West,270,0.2,1.1,82,0.00,,,0.00,WUHU216HW,2013-05-16 10:34:00,
2013-05-16 03:39:00,55.8,50.3,29.95,WSW,248,0.7,1.1,82,0.00,,,0.00,WUHU216HW,2013-05-16 10:39:00,
2013-05-16 03:44:00,55.8,50.3,29.96,WSW,248,0.4,1.1,82,0.00,,,0.00,WUHU216HW,2013-05-16 10:44:00,
2013-05-16 03:49:00,55.8,50.3,29.95,WNW,293,0.4,0.9,82,0.00,,,0.00,WUHU216HW,2013-05-16 10:49:00,
2013-05-16 03:54:00,55.8,50.3,29.95,West,270,1.1,1.1,82,0.00,,,0.00,WUHU216HW,2013-05-16 10:54:00,
2013-05-16 03:59:00,55.8,50.3,29.95,West,270,0.0,1.1,82,0.00,,,0.00,WUHU216HW,2013-05-16 10:59:00,
2013-05-16 04:04:00,55.8,50.3,29.95,SW,225,0.7,0.9,82,0.00,,,0.00,WUHU216HW,2013-05-16 11:04:00,
2013-05-16 04:09:00,55.8,50.3,29.95,SW,225,0.4,1.8,82,0.00,,,0.00,WUHU216HW,2013-05-16 11:09:00,
2013-05-16 04:14:00,55.8,50.3,29.95,SW,225,1.8,1.8,82,0.00,,,0.00,WUHU216HW,2013-05-16 11:14:00,
2013-05-16 04:20:00,55.8,50.3,29.95,SW,225,0.4,1.8,82,0.00,,,0.00,WUHU216HW,2013-05-16 11:20:00,
2013-05-16 04:25:00,56.0,50.5,29.95,WSW,248,0.2,1.1,82,0.00,,,0.00,WUHU216HW,2013-05-16 11:25:00,
2013-05-16 04:30:00,56.0,50.5,29.95,WNW,293,0.4,0.7,82,0.00,,,0.00,WUHU216HW,2013-05-16 11:30:00,
2013-05-16 04:35:00,55.8,50.3,29.95,WSW,248,1.1,1.8,82,0.00,,,0.00,WUHU216HW,2013-05-16 11:35:00,
2013-05-16 04:40:00,55.8,50.3,29.95,WSW,248,0.7,1.8,82,0.00,,,0.00,WUHU216HW,2013-05-16 11:40:00,
2013-05-16 04:45:00,55.8,50.3,29.95,WSW,248,0.9,1.3,82,0.00,,,0.00,WUHU216HW,2013-05-16 11:45:00,
2013-05-16 04:50:00,55.8,50.7,29.95,WSW,248,0.2,1.1,83,0.00,,,0.00,WUHU216HW,2013-05-16 11:50:00,
2013-05-16 04:55:00,55.8,50.3,29.94,West,270,0.0,1.1,82,0.00,,,0.00,WUHU216HW,2013-05-16 11:55:00,
2013-05-16 05:00:00,55.8,50.3,29.95,WSW,248,0.2,0.4,82,0.00,,,0.00,WUHU216HW,2013-05-16 12:00:00,
2013-05-16 05:05:00,55.8,50.3,29.95,East,90,0.2,0.4,82,0.00,,,0.00,WUHU216HW,2013-05-16 12:05:00,
2013-05-16 05:10:00,56.0,50.5,29.94,South,180,0.4,0.4,82,0.00,,,0.00,WUHU216HW,2013-05-16 12:10:00,
2013-05-16 05:15:00,56.0,50.5,29.95,SW,225,1.1,1.1,82,0.00,,,0.00,WUHU216HW,2013-05-16 12:15:00,
2013-05-16 05:20:00,56.0,50.5,29.95,SW,225,1.6,1.6,82,0.00,,,0.00,WUHU216HW,2013-05-16 12:20:00,
2013-05-16 05:25:00,56.0,50.5,29.95,WSW,248,0.0,1.6,82,0.00,,,0.00,WUHU216HW,2013-05-16 12:25:00,
2013-05-16 05:30:00,56.0,50.5,29.95,WSW,248,0.2,0.4,82,0.00,,,0.00,WUHU216HW,2013-05-16 12:30:00,
2013-05-16 05:35:00,56.2,50.7,29.95,SSW,203,0.0,1.8,82,0.00,,,0.00,WUHU216HW,2013-05-16 12:35:00,
2013-05-16 05:41:00,56.2,50.7,29.95,SW,225,0.4,1.8,82,0.00,,,0.00,WUHU216HW,2013-05-16 12:41:00,
2013-05-16 05:46:00,56.2,50.7,29.95,SW,225,0.4,1.1,82,0.00,,,0.00,WUHU216HW,2013-05-16 12:46:00,
2013-05-16 05:51:00,56.2,50.7,29.95,SW,225,0.2,0.4,82,0.00,,,0.00,WUHU216HW,2013-05-16 12:51:00,
2013-05-16 05:56:00,56.2,50.7,29.95,SE,135,0.0,2.0,82,0.00,,,0.00,WUHU216HW,2013-05-16 12:56:00,
2013-05-16 06:01:00,56.2,50.7,29.95,SSW,203,0.4,2.2,82,0.00,,,0.00,WUHU216HW,2013-05-16 13:01:00,
2013-05-16 06:06:00,56.3,50.9,29.95,South,180,0.2,2.2,82,0.00,,,0.00,WUHU216HW,2013-05-16 13:06:00,
2013-05-16 06:11:00,56.3,50.9,29.96,WSW,248,0.0,1.1,82,0.00,,,0.00,WUHU216HW,2013-05-16 13:11:00,
2013-05-16 06:16:00,56.3,50.9,29.96,SSW,203,0.0,1.8,82,0.00,,,0.00,WUHU216HW,2013-05-16 13:16:00,
2013-05-16 06:21:00,56.3,50.9,29.96,SW,225,0.2,1.8,82,0.00,,,0.00,WUHU216HW,2013-05-16 13:21:00,
2013-05-16 06:26:00,56.3,50.9,29.96,SW,225,0.0,0.9,82,0.00,,,0.00,WUHU216HW,2013-05-16 13:26:00,
2013-05-16 06:31:00,56.3,50.9,29.96,WSW,248,0.0,0.9,82,0.00,,,0.00,WUHU216HW,2013-05-16 13:31:00,
2013-05-16 06:36:00,56.3,50.9,29.96,WSW,248,0.0,0.7,82,0.00,,,0.00,WUHU216HW,2013-05-16 13:36:00,
2013-05-16 06:41:00,56.5,51.0,29.96,WSW,248,0.0,0.4,82,0.00,,,0.00,WUHU216HW,2013-05-16 13:41:00,
2013-05-16 06:46:00,56.5,51.4,29.97,SW,225,1.1,1.1,83,0.00,,,0.00,WUHU216HW,2013-05-16 13:46:00,
2013-05-16 06:51:00,56.5,51.4,29.97,WNW,293,0.4,1.1,83,0.00,,,0.00,WUHU216HW,2013-05-16 13:51:00,
2013-05-16 06:57:00,56.5,51.0,29.97,WNW,293,0.0,0.7,82,0.00,,,0.00,WUHU216HW,2013-05-16 13:57:00,
2013-05-16 07:02:00,56.5,51.0,29.97,SW,225,0.2,1.1,82,0.00,,,0.00,WUHU216HW,2013-05-16 14:02:00,
2013-05-16 07:07:00,56.5,51.4,29.97,SW,225,0.0,1.1,83,0.00,,,0.00,WUHU216HW,2013-05-16 14:07:00,
2013-05-16 07:12:00,56.5,51.4,29.97,SW,225,0.0,0.7,83,0.00,,,0.00,WUHU216HW,2013-05-16 14:12:00,
2013-05-16 07:17:00,56.5,51.4,29.98,WSW,248,0.0,0.4,83,0.00,,,0.00,WUHU216HW,2013-05-16 14:17:00,
2013-05-16 07:22:00,56.5,51.4,29.98,SW,225,0.0,0.4,83,0.00,,,0.00,WUHU216HW,2013-05-16 14:22:00,
2013-05-16 07:27:00,56.5,51.7,29.98,SW,225,0.0,0.4,84,0.00,,,0.00,WUHU216HW,2013-05-16 14:27:00,
2013-05-16 07:32:00,56.5,51.7,29.98,SW,225,0.0,0.4,84,0.00,,,0.00,WUHU216HW,2013-05-16 14:32:00,
2013-05-16 07:37:00,56.5,52.0,29.98,West,270,1.1,1.1,85,0.01,,,0.01,WUHU216HW,2013-05-16 14:37:00,
2013-05-16 07:42:00,56.5,51.7,29.98,WSW,248,0.4,2.0,84,0.01,,,0.01,WUHU216HW,2013-05-16 14:42:00,
2013-05-16 07:47:00,56.5,51.7,29.99,WSW,248,1.8,2.0,84,0.01,,,0.01,WUHU216HW,2013-05-16 14:47:00,
2013-05-16 07:52:00,56.3,51.8,29.98,SW,225,1.1,1.8,85,0.01,,,0.01,WUHU216HW,2013-05-16 14:52:00,
2013-05-16 07:57:00,56.3,51.8,29.99,WNW,293,0.0,1.1,85,0.01,,,0.01,WUHU216HW,2013-05-16 14:57:00,
2013-05-16 08:02:00,56.3,51.8,29.99,SSE,158,0.4,2.5,85,0.01,,,0.01,WUHU216HW,2013-05-16 15:02:00,
2013-05-16 08:07:00,56.3,51.8,29.99,WSW,248,1.1,2.5,85,0.01,,,0.01,WUHU216HW,2013-05-16 15:07:00,
2013-05-16 08:13:00,56.5,52.0,29.99,WSW,248,0.2,2.2,85,0.01,,,0.01,WUHU216HW,2013-05-16 15:13:00,
2013-05-16 08:18:00,56.5,51.7,29.99,WSW,248,0.4,0.9,84,0.01,,,0.01,WUHU216HW,2013-05-16 15:18:00,
2013-05-16 08:23:00,56.5,51.7,29.99,West,270,0.0,0.4,84,0.01,,,0.01,WUHU216HW,2013-05-16 15:23:00,
2013-05-16 08:28:00,56.7,52.2,29.99,ENE,68,0.0,0.4,85,0.01,,,0.01,WUHU216HW,2013-05-16 15:28:00,
2013-05-16 08:33:00,56.9,52.4,29.99,West,270,0.7,1.3,85,0.01,,,0.01,WUHU216HW,2013-05-16 15:33:00,
2013-05-16 08:38:00,56.9,52.4,29.99,WSW,248,0.0,1.3,85,0.00,,,0.01,WUHU216HW,2013-05-16 15:38:00,
2013-05-16 08:43:00,56.9,52.0,29.99,WSW,248,0.4,0.4,84,0.01,,,0.02,WUHU216HW,2013-05-16 15:43:00,
2013-05-16 08:48:00,57.1,52.2,29.98,SW,225,0.2,0.7,84,0.01,,,0.02,WUHU216HW,2013-05-16 15:48:00,
2013-05-16 08:53:00,57.2,52.4,29.99,SW,225,0.4,0.7,84,0.01,,,0.02,WUHU216HW,2013-05-16 15:53:00,
2013-05-16 08:58:00,57.2,52.4,29.99,SW,225,0.0,0.4,84,0.01,,,0.02,WUHU216HW,2013-05-16 15:58:00,
2013-05-16 09:03:00,57.4,52.6,29.99,SW,225,0.0,0.0,84,0.01,,,0.02,WUHU216HW,2013-05-16 16:03:00,
2013-05-16 09:08:00,57.6,53.1,29.99,WSW,248,0.4,0.4,85,0.01,,,0.02,WUHU216HW,2013-05-16 16:08:00,
2013-05-16 09:13:00,57.8,53.3,29.99,SW,225,0.4,1.3,85,0.01,,,0.02,WUHU216HW,2013-05-16 16:13:00,
2013-05-16 09:18:00,58.0,53.5,29.99,West,270,0.4,1.3,85,0.01,,,0.02,WUHU216HW,2013-05-16 16:18:00,
2013-05-16 09:24:00,58.0,53.8,29.99,NW,315,0.2,0.9,86,0.01,,,0.02,WUHU216HW,2013-05-16 16:24:00,
2013-05-16 09:29:00,57.6,53.1,29.99,SSW,203,0.7,1.1,85,0.01,,,0.02,WUHU216HW,2013-05-16 16:29:00,
2013-05-16 09:34:00,57.8,53.3,29.99,WSW,248,0.4,1.1,85,0.01,,,0.02,WUHU216HW,2013-05-16 16:34:00,
2013-05-16 09:39:00,58.0,53.5,29.99,SW,225,0.4,0.9,85,0.01,,,0.02,WUHU216HW,2013-05-16 16:39:00,
2013-05-16 09:44:00,58.1,53.6,29.99,WSW,248,0.2,0.9,85,0.00,,,0.02,WUHU216HW,2013-05-16 16:44:00,
2013-05-16 09:49:00,58.1,53.6,29.99,West,270,0.0,0.4,85,0.00,,,0.02,WUHU216HW,2013-05-16 16:49:00,
2013-05-16 09:54:00,58.5,54.0,29.99,SW,225,0.9,0.9,85,0.00,,,0.02,WUHU216HW,2013-05-16 16:54:00,
2013-05-16 09:59:00,58.5,54.0,29.99,West,270,0.0,1.1,85,0.00,,,0.02,WUHU216HW,2013-05-16 16:59:00,
2013-05-16 10:04:00,58.9,54.4,29.99,WNW,293,0.2,1.3,85,0.00,,,0.02,WUHU216HW,2013-05-16 17:04:00,
2013-05-16 10:09:00,59.2,54.7,29.99,West,270,0.9,2.5,85,0.00,,,0.02,WUHU216HW,2013-05-16 17:09:00,
2013-05-16 10:14:00,59.4,54.5,29.99,WSW,248,0.0,2.5,84,0.00,,,0.02,WUHU216HW,2013-05-16 17:14:00,
2013-05-16 10:19:00,59.6,54.7,29.98,WSW,248,0.4,1.8,84,0.00,,,0.02,WUHU216HW,2013-05-16 17:19:00,
2013-05-16 10:24:00,59.9,55.1,29.99,ESE,113,0.4,1.1,84,0.00,,,0.02,WUHU216HW,2013-05-16 17:24:00,
2013-05-16 10:30:00,60.3,55.2,29.99,SW,225,2.2,2.2,83,0.00,,,0.02,WUHU216HW,2013-05-16 17:30:00,
2013-05-16 10:35:00,60.7,55.5,29.98,SW,225,0.0,2.2,83,0.00,,,0.02,WUHU216HW,2013-05-16 17:35:00,
2013-05-16 10:40:00,60.8,55.7,29.98,SE,135,0.7,1.8,83,0.00,,,0.02,WUHU216HW,2013-05-16 17:40:00,
2013-05-16 10:44:00,61.2,56.1,29.98,SW,225,0.2,0.2,83,0.00,,,0.02,WUHU216HW,2013-05-16 17:44:00,
2013-05-16 10:45:00,61.0,55.9,29.98,SSE,158,0.4,1.8,83,0.00,,,0.02,WUHU216HW,2013-05-16 17:45:00,
2013-05-16 10:50:00,61.2,56.1,29.98,SW,225,0.2,1.8,83,0.00,,,0.02,WUHU216HW,2013-05-16 17:50:00,
2013-05-16 11:00:00,60.8,55.1,29.98,SW,225,0.0,0.0,81,0.00,,,0.02,WUHU216HW,2013-05-16 18:00:00,
2013-05-16 11:01:00,60.8,55.1,29.98,SW,225,0.0,0.0,81,0.00,,,0.02,WUHU216HW,2013-05-16 18:01:00,
2013-05-16 11:06:00,60.8,55.1,29.98,SW,225,0.0,0.0,81,0.00,,,0.02,WUHU216HW,2013-05-16 18:06:00,
2013-05-16 13:00:00,65.3,55.7,29.96,NNW,338,2.0,2.0,71,0.00,,,0.02,WUHU216HW,2013-05-16 20:00:00,
2013-05-16 13:01:00,65.3,55.7,29.96,NNW,338,2.0,2.0,71,0.00,,,0.02,WUHU216HW,2013-05-16 20:01:00,
2013-05-16 13:06:00,65.3,55.7,29.96,NNW,338,2.0,2.0,71,0.00,,,0.02,WUHU216HW,2013-05-16 20:06:00,
2013-05-16 14:00:00,69.8,55.4,29.95,West,270,4.0,4.0,60,0.00,,,0.02,WUHU216HW,2013-05-16 21:00:00,
2013-05-16 14:01:00,69.8,55.4,29.95,West,270,4.0,4.0,60,0.00,,,0.02,WUHU216HW,2013-05-16 21:01:00,
2013-05-16 14:06:00,69.8,55.4,29.95,West,270,4.0,4.0,60,0.00,,,0.02,WUHU216HW,2013-05-16 21:06:00,
2013-05-16 15:00:00,68.9,54.0,29.94,WNW,293,0.4,0.4,59,0.00,,,0.02,WUHU216HW,2013-05-16 22:00:00,
2013-05-16 15:01:00,68.9,54.0,29.94,WNW,293,0.4,0.4,59,0.00,,,0.02,WUHU216HW,2013-05-16 22:01:00,
2013-05-16 15:06:00,68.9,54.0,29.94,WNW,293,0.4,0.4,59,0.00,,,0.02,WUHU216HW,2013-05-16 22:06:00,
2013-05-16 16:00:00,67.5,50.8,29.94,NNW,338,4.0,4.0,55,0.00,,,0.02,WUHU216HW,2013-05-16 23:00:00,
2013-05-16 16:01:00,67.5,50.8,29.94,NNW,338,4.0,4.0,55,0.00,,,0.02,WUHU216HW,2013-05-16 23:01:00,
2013-05-16 16:06:00,67.5,50.8,29.94,NNW,338,4.0,4.0,55,0.00,,,0.02,WUHU216HW,2013-05-16 23:06:00,
2013-05-16 17:00:00,70.4,51.4,29.94,NNW,338,2.5,2.5,51,0.00,,,0.02,WUHU216HW,2013-05-17 00:00:00,
2013-05-16 17:01:00,70.4,51.4,29.94,NNW,338,2.5,2.5,51,0.00,,,0.02,WUHU216HW,2013-05-17 00:01:00,
2013-05-16 17:06:00,70.4,51.4,29.94,NNW,338,2.5,2.5,51,0.00,,,0.02,WUHU216HW,2013-05-17 00:06:00,
2013-05-16 18:00:00,68.0,50.8,29.94,NNW,338,0.9,0.9,54,0.00,,,0.02,WUHU216HW,2013-05-17 01:00:00,
2013-05-16 18:01:00,68.0,50.8,29.94,NNW,338,0.9,0.9,54,0.00,,,0.02,WUHU216HW,2013-05-17 01:01:00,
2013-05-16 18:06:00,68.0,50.8,29.94,NNW,338,0.9,0.9,54,0.00,,,0.02,WUHU216HW,2013-05-17 01:06:00,
2013-05-16 19:01:00,61.9,51.3,29.93,WSW,248,4.0,4.7,68,0.00,,,0.02,WUHU216HW,2013-05-17 02:01:00,
2013-05-16 19:06:00,61.9,51.3,29.93,NW,315,0.9,4.7,68,0.00,,,0.02,WUHU216HW,2013-05-17 02:06:00,
2013-05-16 19:11:00,62.5,51.3,29.93,NW,315,2.5,3.1,67,0.00,,,0.02,WUHU216HW,2013-05-17 02:11:00,
2013-05-16 19:16:00,62.1,51.0,29.93,WNW,293,1.3,4.7,67,0.00,,,0.02,WUHU216HW,2013-05-17 02:16:00,
2013-05-16 19:21:00,61.6,50.9,29.93,NW,315,0.7,4.7,68,0.00,,,0.02,WUHU216HW,2013-05-17 02:21:00,
2013-05-16 19:26:00,61.2,51.0,29.93,West,270,1.6,2.2,69,0.00,,,0.02,WUHU216HW,2013-05-17 02:26:00,
2013-05-16 19:31:00,60.8,50.3,29.93,WSW,248,3.4,4.7,68,0.00,,,0.02,WUHU216HW,2013-05-17 02:31:00,
2013-05-16 19:36:00,60.7,50.5,29.93,West,270,0.4,4.7,69,0.00,,,0.02,WUHU216HW,2013-05-17 02:36:00,
2013-05-16 19:41:00,60.5,50.3,29.94,West,270,0.4,2.5,69,0.00,,,0.02,WUHU216HW,2013-05-17 02:41:00,
2013-05-16 19:46:00,60.1,50.4,29.94,SW,225,1.3,2.5,70,0.00,,,0.02,WUHU216HW,2013-05-17 02:46:00,
2013-05-16 19:51:00,59.8,50.4,29.94,WSW,248,1.1,1.8,71,0.00,,,0.02,WUHU216HW,2013-05-17 02:51:00,
2013-05-16 19:56:00,59.2,50.2,29.93,WNW,293,0.9,1.8,72,0.00,,,0.02,WUHU216HW,2013-05-17 02:56:00,
2013-05-16 20:01:00,58.7,50.0,29.93,NW,315,0.9,2.2,73,0.00,,,0.02,WUHU216HW,2013-05-17 03:01:00,
2013-05-16 20:06:00,58.5,50.6,29.93,NW,315,0.4,2.2,75,0.00,,,0.02,WUHU216HW,2013-05-17 03:06:00,
2013-05-16 20:11:00,58.0,50.4,29.94,NW,315,0.4,1.6,76,0.00,,,0.02,WUHU216HW,2013-05-17 03:11:00,
2013-05-16 20:16:00,58.0,50.0,29.94,WNW,293,1.1,1.6,75,0.00,,,0.02,WUHU216HW,2013-05-17 03:16:00,
2013-05-16 20:22:00,58.1,50.2,29.94,NW,315,1.3,1.3,75,0.00,,,0.02,WUHU216HW,2013-05-17 03:22:00,
2013-05-16 20:27:00,58.0,50.4,29.94,NW,315,0.7,1.8,76,0.00,,,0.02,WUHU216HW,2013-05-17 03:27:00,
2013-05-16 20:32:00,58.0,50.0,29.94,West,270,0.7,1.8,75,0.00,,,0.02,WUHU216HW,2013-05-17 03:32:00,
2013-05-16 20:37:00,57.8,50.2,29.94,SW,225,1.8,2.5,76,0.00,,,0.02,WUHU216HW,2013-05-17 03:37:00,
2013-05-16 20:42:00,57.6,49.7,29.94,WNW,293,0.4,2.5,75,0.00,,,0.02,WUHU216HW,2013-05-17 03:42:00,
2013-05-16 20:47:00,57.6,50.0,29.94,WNW,293,0.2,1.6,76,0.00,,,0.02,WUHU216HW,2013-05-17 03:47:00,
2013-05-16 20:52:00,57.4,49.9,29.94,WSW,248,1.3,1.6,76,0.00,,,0.02,WUHU216HW,2013-05-17 03:52:00,
2013-05-16 20:57:00,57.6,50.4,29.94,West,270,1.1,1.8,77,0.00,,,0.02,WUHU216HW,2013-05-17 03:57:00,
2013-05-16 21:01:00,57.4,49.9,29.94,WSW,248,1.1,1.8,76,0.00,,,0.02,WUHU216HW,2013-05-17 04:01:00,
2013-05-16 21:07:00,57.6,50.0,29.94,SW,225,1.8,3.4,76,0.00,,,0.02,WUHU216HW,2013-05-17 04:07:00,
2013-05-16 21:12:00,57.4,49.9,29.94,WNW,293,0.0,3.4,76,0.00,,,0.02,WUHU216HW,2013-05-17 04:12:00,
2013-05-16 21:17:00,57.4,49.5,29.94,SW,225,1.6,1.6,75,0.00,,,0.02,WUHU216HW,2013-05-17 04:17:00,
2013-05-16 21:22:00,57.4,49.5,29.94,WSW,248,0.0,1.6,75,0.00,,,0.02,WUHU216HW,2013-05-17 04:22:00,
2013-05-16 21:27:00,57.2,49.0,29.95,SSW,203,0.7,0.7,74,0.00,,,0.02,WUHU216HW,2013-05-17 04:27:00,
2013-05-16 21:32:00,57.2,49.3,29.95,SW,225,0.9,1.1,75,0.00,,,0.02,WUHU216HW,2013-05-17 04:32:00,
2013-05-16 21:37:00,57.2,49.3,29.95,SW,225,0.2,1.3,75,0.00,,,0.02,WUHU216HW,2013-05-17 04:37:00,
2013-05-16 21:42:00,57.2,49.3,29.95,SW,225,0.0,1.3,75,0.00,,,0.02,WUHU216HW,2013-05-17 04:42:00,
2013-05-16 21:47:00,57.2,49.3,29.96,SW,225,0.0,0.9,75,0.00,,,0.02,WUHU216HW,2013-05-17 04:47:00,
2013-05-16 21:52:00,57.2,49.3,29.95,SW,225,1.1,1.1,75,0.00,,,0.02,WUHU216HW,2013-05-17 04:52:00,
2013-05-16 21:57:00,57.2,49.3,29.95,WNW,293,1.1,1.1,75,0.00,,,0.02,WUHU216HW,2013-05-17 04:57:00,
2013-05-16 22:02:00,57.2,49.3,29.95,WSW,248,0.7,1.1,75,0.00,,,0.02,WUHU216HW,2013-05-17 05:02:00,
2013-05-16 22:07:00,57.2,49.3,29.95,SW,225,2.2,4.7,75,0.00,,,0.02,WUHU216HW,2013-05-17 05:07:00,
2013-05-16 22:12:00,57.2,49.7,29.95,SW,225,0.4,4.7,76,0.00,,,0.02,WUHU216HW,2013-05-17 05:12:00,
2013-05-16 22:17:00,57.1,49.9,29.96,WSW,248,1.6,1.8,77,0.00,,,0.02,WUHU216HW,2013-05-17 05:17:00,
2013-05-16 22:22:00,56.9,49.3,29.96,West,270,0.7,2.5,76,0.00,,,0.02,WUHU216HW,2013-05-17 05:22:00,
2013-05-16 22:27:00,56.7,49.1,29.96,WSW,248,0.7,2.5,76,0.00,,,0.02,WUHU216HW,2013-05-17 05:27:00,
2013-05-16 22:32:00,56.5,49.0,29.96,SW,225,1.3,2.0,76,0.00,,,0.02,WUHU216HW,2013-05-17 05:32:00,
2013-05-16 22:38:00,56.5,49.0,29.96,WSW,248,0.9,2.2,76,0.00,,,0.02,WUHU216HW,2013-05-17 05:38:00,
2013-05-16 22:43:00,56.3,49.1,29.96,SW,225,2.0,2.2,77,0.00,,,0.02,WUHU216HW,2013-05-17 05:43:00,
2013-05-16 22:48:00,56.3,49.1,29.96,SW,225,1.6,2.5,77,0.00,,,0.02,WUHU216HW,2013-05-17 05:48:00,
2013-05-16 22:53:00,56.2,49.0,29.96,WSW,248,1.3,2.5,77,0.00,,,0.02,WUHU216HW,2013-05-17 05:53:00,
2013-05-16 22:58:00,56.2,49.0,29.96,WSW,248,1.3,4.0,77,0.00,,,0.02,WUHU216HW,2013-05-17 05:58:00,
2013-05-16 23:03:00,56.0,48.8,29.95,WSW,248,1.1,5.1,77,0.00,,,0.02,WUHU216HW,2013-05-17 06:03:00,
2013-05-16 23:08:00,55.8,48.6,29.95,WSW,248,1.1,5.1,77,0.00,,,0.02,WUHU216HW,2013-05-17 06:08:00,
2013-05-16 23:13:00,55.8,48.6,29.96,SW,225,0.4,2.5,77,0.00,,,0.02,WUHU216HW,2013-05-17 06:13:00,
2013-05-16 23:18:00,55.6,48.5,29.96,SW,225,1.8,1.8,77,0.00,,,0.02,WUHU216HW,2013-05-17 06:18:00,
2013-05-16 23:23:00,55.6,48.5,29.96,SSW,203,1.8,1.8,77,0.00,,,0.02,WUHU216HW,2013-05-17 06:23:00,
2013-05-16 23:28:00,55.6,48.5,29.96,West,270,3.4,3.4,77,0.00,,,0.02,WUHU216HW,2013-05-17 06:28:00,
2013-05-16 23:33:00,55.6,48.5,29.96,West,270,1.3,3.4,77,0.00,,,0.02,WUHU216HW,2013-05-17 06:33:00,
2013-05-16 23:38:00,55.6,48.5,29.96,WSW,248,0.0,2.2,77,0.00,,,0.02,WUHU216HW,2013-05-17 06:38:00,
2013-05-16 23:43:00,55.6,48.2,29.96,ESE,113,0.7,2.2,76,0.00,,,0.02,WUHU216HW,2013-05-17 06:43:00,
2013-05-16 23:48:00,55.8,48.3,29.96,SW,225,1.1,2.0,76,0.00,,,0.02,WUHU216HW,2013-05-17 06:48:00,
2013-05-16 23:53:00,55.8,48.3,29.95,WSW,248,0.2,1.1,76,0.00,,,0.02,WUHU216HW,2013-05-17 06:53:00,
2013-05-16 23:58:00,55.8,48.3,29.95,SE,135,0.4,0.9,76,0.00,,,0.02,WUHU216HW,2013-05-17 06:58:00,